Miscellaneous Local Product
Issued by NWS Hastings, NE

Home | Current Version | Previous Version | Graphics & Text | Print | Product List | Glossary On
Versions: 1 2 3 4 5 6 7 8 9 10 11 12 13 14 15 16 17 18 19 20 21 22 23 24 25 26 27 28 29 30 31 32 33 34 35 36 37 38 39 40 41 42 43 44 45 46 47 48 49 50
184
AXUS43 KGID 271502
MISGRI

GID CWA HOURLY WEATHER ROUNDUP
NATIONAL WEATHER SERVICE HASTINGS NE
1000 AM CDT SAT AUG 27 2016

NOTE: "FAIR" INDICATES FEW OR NO CLOUDS BELOW 12,000 FEET WITH NO
SIGNIFICANT WEATHER AND/OR OBSTRUCTIONS TO VISIBILITY.

...SOUTH CENTRAL NEBRASKA...

CITY           SKY/WX    TMP DP  RH WIND       PRES   REMARKS
GRAND ISLAND   SUNNY     67  60  78 NW6       30.06S
HASTINGS       SUNNY     69  58  67 NW7       30.06S
KEARNEY        SUNNY     66  59  77 NW3       30.07R
ORD            PTSUNNY   65  60  84 E3        30.05S
YORK           MOSUNNY   68  64  88 CALM      30.06S
AURORA         CLOUDY    64  64 100 NW3       30.05S
LEXINGTON      SUNNY     64  58  79 CALM      30.08S
HOLDREGE       SUNNY     65  59  79 NW3       30.07F
HEBRON         MOSUNNY   69  66  92 CALM      30.05R

...NEBRASKA PANHANDLE...

CITY           SKY/WX    TMP DP  RH WIND       PRES   REMARKS
CHADRON        SUNNY     62  54  74 S12       30.03F
ALLIANCE       CLOUDY    57  55  93 SW6       30.07S
SCOTTSBLUFF    FOG       55  54  96 S3        30.08S VSB 1/2
SIDNEY         FOG       55  55 100 W3        30.10F VSB 1/2

...WESTERN AND NORTH CENTRAL NEBRASKA...

CITY           SKY/WX    TMP DP  RH WIND       PRES   REMARKS
VALENTINE      SUNNY     64  57  78 S10       30.03F
AINSWORTH      SUNNY     64  59  85 W5        30.05S
ONEILL         CLOUDY    64  62  95 S8        30.04F
BROKEN BOW     SUNNY     64  58  80 CALM      30.06F
IMPERIAL       PTSUNNY   60  56  86 S6        30.09F
NORTH PLATTE   MOSUNNY   61  56  83 VRB3      30.09R
MCCOOK         SUNNY     63  58  83 S6        30.07F

...EASTERN NEBRASKA...

CITY           SKY/WX    TMP DP  RH WIND       PRES   REMARKS
NORFOLK        PTSUNNY   70  63  78 N3        30.03F
SO SIOUX CITY  CLOUDY    67  64  90 S3        30.02F
TEKAMAH        CLOUDY    67  66  97 SE3       30.03S FOG
COLUMBUS       MOSUNNY   70  57  64 CALM      30.04S
ALBION         CLOUDY    65  63  93 NW3       30.04F
OMAHA EPPLEY   CLOUDY    72  67  84 CALM      30.02S
OFFUTT AFB     PTSUNNY   73  69  89 NW7       30.01F
MILLARD        CLOUDY    72  67  85 NW6       30.03S
LINCOLN        CLOUDY    73  66  78 N3        30.04S
NEBRASKA CITY  CLOUDY    71  70  96 W6        30.04R
BEATRICE       CLOUDY    70  67  89 CALM      30.04R
FALLS CITY     SUNNY     74  68  81 W5        30.02S

...NORTHERN KANSAS...

CITY           SKY/WX    TMP DP  RH WIND       PRES   REMARKS
GOODLAND       FOG       59  58  96 NE6       30.09R VSB 1/2
HILL CITY      SUNNY     67  61  81 N3        30.07S
NORTON         SUNNY     64  57  77 CALM      30.05F
SMITH CENTER   SUNNY     68  61  77 CALM      30.06R
BELOIT         MOSUNNY   66  63  88 CALM      30.04S
HAYS           SUNNY     70  55  60 E8        30.06R
RUSSELL        SUNNY     69  63  81 NE6       30.05R
CONCORDIA      MOSUNNY   69  65  86 CALM      30.05S
SALINA         MOSUNNY   72  66  81 S7        30.05R
TOPEKA         SUNNY     74  68  81 S3        30.03R



USA.gov is the U.S. government's official web portal to all federal, state and local government web resources and services.